BAW28NE EGLL-WSSS

Flight info

Callsign BAW28NE
Flight time N/A
Altitude 33000
Route DET L6 DVR L9 KONAN UL607 FERDI DCT MATUG DCT GUBAX DCT KOMIB L984 SULUS Z650 VEMUT DCT DITIS DCT ERGOM DCT BUDOP DCT UDROS UM859 OSDIP/N0489F350 UM859 KARDE UL851 TBN UR317 REBLO M11 LUSAL N199 BAKUV N701 LARGI B701 KRS A240 INRAK B449 DOLOS B475 RUBAD A846 RANAH L750 RIKAD/N0493F370 L750 ZB G202 RK P628 IBANI L510 LEGIN/N0491F390 L510 GIVAL P628 VPL Y503 RINBA Y507 MAKNA Y511 TOPOR A464 ARAMA DCT TEBUN TEBUN1B
Aircraft A35K/H-SDE2E3GHIJ3J4J5LM1ORWXY/LB1D1

Departure

Time 2026-05-07 21:50
Airport London Heathrow Airport (EGLL)

Arrival

Time N/A
Airport Singapore Changi Airport (WSSS)
Time Latitude Longitude Altitude Speed Heading
2026-05-07 21:29 51.46912 -0.47997 95 ft 0 kts 269°
2026-05-07 21:37 51.46912 -0.47992 94 ft 3 kts 269°
2026-05-07 21:37 51.46913 -0.47962 94 ft 3 kts 269°
2026-05-07 21:37 51.46912 -0.47932 93 ft 3 kts 264°
2026-05-07 21:38 51.46918 -0.47901 91 ft 3 kts 229°
2026-05-07 21:38 51.46933 -0.47882 93 ft 3 kts 193°
2026-05-07 21:38 51.46941 -0.47879 92 ft 0 kts 178°
2026-05-07 21:39 51.46935 -0.47878 94 ft 2 kts 178°
2026-05-07 21:39 51.46916 -0.47877 95 ft 4 kts 178°
2026-05-07 21:39 51.46875 -0.47876 91 ft 8 kts 179°
2026-05-07 21:40 51.46812 -0.47874 91 ft 11 kts 179°
2026-05-07 21:40 51.46726 -0.47875 91 ft 14 kts 180°
2026-05-07 21:40 51.46703 -0.47875 92 ft 0 kts 180°
2026-05-07 21:47 51.46691 -0.47885 93 ft 3 kts 214°
2026-05-07 21:47 51.46673 -0.47927 93 ft 7 kts 237°
2026-05-07 21:47 51.46656 -0.48019 95 ft 9 kts 266°
2026-05-07 21:48 51.46654 -0.48130 95 ft 11 kts 269°
2026-05-07 21:48 51.46652 -0.48263 93 ft 13 kts 269°
2026-05-07 21:48 51.46651 -0.48421 95 ft 15 kts 269°
2026-05-07 21:48 51.46650 -0.48592 96 ft 8 kts 269°
2026-05-07 21:49 51.46647 -0.48685 96 ft 10 kts 267°
2026-05-07 21:49 51.46614 -0.48744 94 ft 9 kts 211°
2026-05-07 21:49 51.46547 -0.48789 93 ft 11 kts 183°
2026-05-07 21:49 51.46489 -0.48724 97 ft 10 kts 118°
2026-05-07 21:50 51.46479 -0.48537 93 ft 36 kts 91°
2026-05-07 21:50 51.46483 -0.47650 91 ft 124 kts 89°
2026-05-07 21:50 51.46490 -0.45912 389 ft 173 kts 89°
2026-05-07 21:50 51.46532 -0.43944 1497 ft 179 kts 88°
2026-05-07 21:51 51.46335 -0.41876 1975 ft 200 kts 111°
2026-05-07 21:51 51.45721 -0.39695 2251 ft 230 kts 115°
2026-05-07 21:51 51.44978 -0.37303 2843 ft 245 kts 115°
2026-05-07 21:51 51.44299 -0.34771 3684 ft 249 kts 110°
2026-05-07 21:52 51.43688 -0.32153 4495 ft 253 kts 109°
2026-05-07 21:52 51.43091 -0.29469 5314 ft 257 kts 108°
2026-05-07 21:52 51.42755 -0.27637 5832 ft 261 kts 103°
2026-05-07 21:52 51.42336 -0.24761 6623 ft 268 kts 101°
2026-05-07 21:53 51.41805 -0.20826 7618 ft 277 kts 101°
2026-05-07 21:53 51.41392 -0.17774 8450 ft 283 kts 102°
2026-05-07 21:53 51.40969 -0.14668 9271 ft 289 kts 102°
2026-05-07 21:53 51.40681 -0.12566 9809 ft 293 kts 102°
2026-05-07 21:54 51.40231 -0.09328 10460 ft 305 kts 103°
2026-05-07 21:54 51.39743 -0.05887 10799 ft 328 kts 103°
2026-05-07 21:54 51.39221 -0.02213 11115 ft 349 kts 103°
2026-05-07 21:54 51.38677 0.01697 11481 ft 368 kts 103°
2026-05-07 21:55 51.38111 0.05754 12078 ft 378 kts 103°
2026-05-07 21:55 51.37533 0.09901 12830 ft 384 kts 103°
2026-05-07 21:55 51.36947 0.14099 13594 ft 388 kts 104°
2026-05-07 21:55 51.36355 0.18306 14308 ft 393 kts 104°
2026-05-07 21:56 51.35753 0.22604 14958 ft 398 kts 104°
2026-05-07 21:56 51.35138 0.26952 15597 ft 403 kts 104°
2026-05-07 21:56 51.34515 0.31345 16241 ft 407 kts 104°
2026-05-07 21:56 51.33882 0.35784 16884 ft 412 kts 104°
2026-05-07 21:57 51.33237 0.40285 17522 ft 417 kts 104°
2026-05-07 21:57 51.32585 0.44836 17968 ft 422 kts 104°
2026-05-07 21:57 51.31928 0.49441 18548 ft 427 kts 104°
2026-05-07 21:57 51.31260 0.54094 19165 ft 431 kts 104°
2026-05-07 21:58 51.30582 0.58782 19803 ft 435 kts 104°
2026-05-07 21:58 51.29876 0.63511 20421 ft 438 kts 105°
2026-05-07 21:58 51.29064 0.68229 21045 ft 442 kts 107°
2026-05-07 21:58 51.28192 0.72902 21659 ft 446 kts 108°
2026-05-07 21:59 51.27281 0.77653 22252 ft 450 kts 108°
2026-05-07 21:59 51.26359 0.82467 22871 ft 454 kts 108°
2026-05-07 21:59 51.25436 0.87332 23466 ft 458 kts 108°
2026-05-07 21:59 51.24514 0.92236 24004 ft 462 kts 108°
2026-05-07 22:00 51.23604 0.97115 24510 ft 466 kts 108°
2026-05-07 22:00 51.22678 1.02096 24967 ft 471 kts 108°
2026-05-07 22:00 51.21742 1.07127 25450 ft 474 kts 108°
2026-05-07 22:00 51.20799 1.12187 25920 ft 478 kts 108°
2026-05-07 22:01 51.19845 1.17291 26417 ft 481 kts 108°
2026-05-07 22:01 51.18882 1.22430 26882 ft 484 kts 108°
2026-05-07 22:01 51.17909 1.27597 27333 ft 488 kts 108°
2026-05-07 22:01 51.16956 1.32810 27773 ft 492 kts 105°
2026-05-07 22:02 51.16327 1.38184 28198 ft 496 kts 98°
2026-05-07 22:02 51.15945 1.43687 28582 ft 500 kts 96°
2026-05-07 22:02 51.15643 1.49162 28924 ft 504 kts 95°
2026-05-07 22:02 51.15375 1.54752 29321 ft 507 kts 95°
2026-05-07 22:03 51.15120 1.60355 29919 ft 505 kts 95°
2026-05-07 22:03 51.14867 1.65925 30427 ft 503 kts 95°
2026-05-07 22:03 51.14611 1.71406 30834 ft 503 kts 95°
2026-05-07 22:03 51.14342 1.76972 31230 ft 503 kts 95°
2026-05-07 22:04 51.14066 1.82529 31623 ft 502 kts 95°
2026-05-07 22:04 51.13785 1.88068 32012 ft 502 kts 95°
2026-05-07 22:04 51.13499 1.93619 32353 ft 502 kts 95°
2026-05-07 22:04 51.13209 1.99175 32653 ft 503 kts 95°
2026-05-07 22:05 51.12921 2.04716 32986 ft 502 kts 95°
2026-05-07 22:05 51.12631 2.10215 33099 ft 506 kts 95°
2026-05-07 22:05 51.12028 2.21401 33092 ft 508 kts 95°
2026-05-07 22:06 51.11416 2.32594 33097 ft 508 kts 95°
2026-05-07 22:06 51.10791 2.43821 33094 ft 508 kts 95°
2026-05-07 22:07 51.10165 2.55031 33083 ft 509 kts 95°
2026-05-07 22:07 51.09279 2.66189 33092 ft 508 kts 104°
2026-05-07 22:08 51.07500 2.76991 33089 ft 507 kts 106°
2026-05-07 22:08 51.05538 2.87778 33101 ft 507 kts 107°
2026-05-07 22:09 51.03548 2.98528 33098 ft 507 kts 107°
2026-05-07 22:09 51.01568 3.09229 33094 ft 507 kts 107°
2026-05-07 22:10 50.99578 3.19983 33090 ft 507 kts 107°
2026-05-07 22:10 50.97579 3.30738 33070 ft 507 kts 107°
2026-05-07 22:11 50.95572 3.41474 33077 ft 507 kts 107°
2026-05-07 22:11 50.93569 3.52134 33073 ft 507 kts 107°
2026-05-07 22:12 50.91541 3.62858 33075 ft 507 kts 107°
2026-05-07 22:12 50.89614 3.73628 33083 ft 507 kts 105°
2026-05-07 22:13 50.87833 3.84399 33087 ft 508 kts 105°
2026-05-07 22:13 50.86026 3.95231 33088 ft 508 kts 105°
2026-05-07 22:14 50.84183 4.06044 33088 ft 508 kts 105°
2026-05-07 22:14 50.82317 4.16853 33100 ft 508 kts 106°
2026-05-07 22:15 50.80441 4.27636 33100 ft 508 kts 106°
2026-05-07 22:15 50.78567 4.38353 33098 ft 508 kts 106°
2026-05-07 22:16 50.76680 4.49084 33101 ft 507 kts 106°
2026-05-07 22:16 50.74781 4.59818 33098 ft 507 kts 106°
2026-05-07 22:17 50.72872 4.70553 33086 ft 507 kts 106°
2026-05-07 22:17 50.70962 4.81220 33091 ft 508 kts 106°
2026-05-07 22:18 50.68060 4.97315 33087 ft 508 kts 106°
2026-05-07 22:19 50.66114 5.08027 33085 ft 508 kts 106°
2026-05-07 22:19 50.64156 5.18736 33098 ft 508 kts 106°
2026-05-07 22:20 50.62191 5.29428 33083 ft 508 kts 107°
2026-05-07 22:20 50.60226 5.40059 33083 ft 508 kts 107°
2026-05-07 22:21 50.58239 5.50739 33082 ft 508 kts 107°
2026-05-07 22:21 50.56240 5.61428 33087 ft 508 kts 107°
2026-05-07 22:22 50.54241 5.72060 33087 ft 509 kts 107°
2026-05-07 22:22 50.52223 5.82729 33089 ft 509 kts 107°
2026-05-07 22:23 50.50207 5.93325 33088 ft 509 kts 107°
2026-05-07 22:23 50.48171 6.03967 33084 ft 508 kts 107°
2026-05-07 22:24 50.46129 6.14578 33086 ft 508 kts 107°
2026-05-07 22:24 50.44076 6.25198 33084 ft 509 kts 107°
2026-05-07 22:25 50.42087 6.35856 33086 ft 509 kts 102°
2026-05-07 22:25 50.41008 6.46750 33083 ft 509 kts 97°
2026-05-07 22:26 50.40154 6.57788 33078 ft 509 kts 96°
2026-05-07 22:26 50.39328 6.68807 33076 ft 509 kts 96°
2026-05-07 22:27 50.38478 6.79833 33077 ft 509 kts 97°
2026-05-07 22:27 50.37606 6.90851 33080 ft 509 kts 97°
2026-05-07 22:28 50.36719 7.01859 33075 ft 508 kts 97°
2026-05-07 22:28 50.35826 7.12831 33077 ft 507 kts 97°
2026-05-07 22:29 50.34928 7.23738 33080 ft 507 kts 97°
2026-05-07 22:29 50.34014 7.34706 33078 ft 508 kts 97°
2026-05-07 22:30 50.33089 7.45678 33084 ft 507 kts 97°
2026-05-07 22:30 50.32155 7.56626 33090 ft 507 kts 97°
2026-05-07 22:31 50.31218 7.67488 33096 ft 507 kts 97°
2026-05-07 22:31 50.30265 7.78410 33105 ft 507 kts 97°
2026-05-07 22:32 50.29299 7.89362 33103 ft 507 kts 97°
2026-05-07 22:32 50.28364 8.00224 33105 ft 506 kts 97°
2026-05-07 22:33 50.27458 8.11139 33102 ft 506 kts 97°
2026-05-07 22:33 50.26543 8.22046 33101 ft 506 kts 97°
2026-05-07 22:34 50.25610 8.32944 33102 ft 506 kts 97°
2026-05-07 22:34 50.24660 8.43875 33107 ft 507 kts 97°
2026-05-07 22:35 50.23708 8.54714 33105 ft 507 kts 97°
2026-05-07 22:35 50.22738 8.65640 33102 ft 507 kts 97°
2026-05-07 22:36 50.21758 8.76557 33100 ft 507 kts 97°
2026-05-07 22:36 50.20770 8.87457 33102 ft 507 kts 97°
2026-05-07 22:37 50.19770 8.98357 33103 ft 507 kts 97°
2026-05-07 22:37 50.18767 9.09181 33099 ft 507 kts 98°
2026-05-07 22:38 50.17746 9.20087 33110 ft 507 kts 98°
2026-05-07 22:38 50.16714 9.30989 33102 ft 509 kts 98°
2026-05-07 22:39 50.15670 9.41913 33095 ft 509 kts 98°
2026-05-07 22:39 50.14622 9.52765 33092 ft 509 kts 98°
2026-05-07 22:40 50.13556 9.63692 33100 ft 509 kts 98°
2026-05-07 22:40 50.12663 9.72756 33099 ft 509 kts 98°
2026-05-07 22:41 50.11578 9.83668 33104 ft 510 kts 98°
2026-05-07 22:41 50.10483 9.94585 33113 ft 510 kts 98°
2026-05-07 22:42 50.09378 10.05503 33115 ft 510 kts 98°
2026-05-07 22:42 50.08261 10.16422 33122 ft 510 kts 98°
2026-05-07 22:43 50.07527 10.27414 33118 ft 510 kts 90°
2026-05-07 22:43 50.07481 10.38390 33124 ft 511 kts 88°
2026-05-07 22:44 50.07542 10.49467 33115 ft 511 kts 88°
2026-05-07 22:44 50.07601 10.60538 33121 ft 511 kts 88°
2026-05-07 22:45 50.07402 10.71603 33117 ft 512 kts 97°
2026-05-07 22:45 50.05705 10.82279 33114 ft 511 kts 107°
2026-05-07 22:46 50.03513 10.92820 33113 ft 511 kts 108°
2026-05-07 22:46 50.01239 11.03313 33110 ft 511 kts 108°
2026-05-07 22:47 49.98973 11.13812 33111 ft 511 kts 108°
2026-05-07 22:47 49.96719 11.24303 33107 ft 511 kts 108°
2026-05-07 22:48 49.94502 11.34748 33098 ft 511 kts 108°
2026-05-07 22:48 49.92296 11.45268 33101 ft 511 kts 107°
2026-05-07 22:49 49.90348 11.55887 33089 ft 511 kts 105°
2026-05-07 22:49 49.88524 11.66490 33083 ft 511 kts 101°
2026-05-07 22:50 49.87398 11.77383 33073 ft 512 kts 97°
2026-05-07 22:50 49.86425 11.88329 33071 ft 512 kts 97°
2026-05-07 22:51 49.85466 11.99266 33065 ft 512 kts 97°
2026-05-07 22:51 49.84489 12.10218 33068 ft 512 kts 97°
2026-05-07 22:52 49.83502 12.21076 33074 ft 512 kts 97°
2026-05-07 22:52 49.82498 12.32008 33079 ft 512 kts 97°
2026-05-07 22:53 49.81390 12.42914 33079 ft 513 kts 103°
2026-05-07 22:53 49.78892 12.53227 33081 ft 512 kts 115°
2026-05-07 22:54 49.75736 12.63093 33076 ft 511 kts 117°
2026-05-07 22:54 49.72474 12.72856 33074 ft 511 kts 117°
2026-05-07 22:55 49.69205 12.82649 33082 ft 513 kts 117°
2026-05-07 22:55 49.65945 12.92457 33083 ft 514 kts 117°
2026-05-07 22:56 49.62701 13.02207 33082 ft 514 kts 117°
2026-05-07 22:56 49.59430 13.12002 33083 ft 514 kts 117°
2026-05-07 22:57 49.56141 13.21813 33100 ft 514 kts 118°
2026-05-07 22:57 49.52847 13.31593 33097 ft 514 kts 118°
2026-05-07 22:58 49.49570 13.41290 33096 ft 514 kts 118°
2026-05-07 22:58 49.46260 13.51047 33095 ft 514 kts 118°
2026-05-07 22:59 49.42943 13.60785 33089 ft 514 kts 118°
2026-05-07 22:59 49.39616 13.70515 33087 ft 514 kts 118°
2026-05-07 23:00 49.36297 13.80188 33092 ft 514 kts 118°
2026-05-07 23:00 49.32951 13.89899 33095 ft 516 kts 118°
2026-05-07 23:01 49.29592 13.99614 33096 ft 515 kts 118°
2026-05-07 23:01 49.26227 14.09309 33095 ft 515 kts 118°
2026-05-07 23:02 49.22849 14.19003 33089 ft 515 kts 118°
2026-05-07 23:02 49.19487 14.28616 33090 ft 515 kts 119°
2026-05-07 23:03 49.16093 14.38285 33082 ft 515 kts 119°
2026-05-07 23:03 49.12697 14.47924 33088 ft 515 kts 119°
2026-05-07 23:04 49.09314 14.57490 33088 ft 515 kts 119°
2026-05-07 23:04 49.05900 14.67106 33082 ft 515 kts 119°
2026-05-07 23:05 49.02476 14.76716 33084 ft 515 kts 120°
2026-05-07 23:05 48.99044 14.86314 33083 ft 516 kts 120°
2026-05-07 23:06 48.95622 14.95847 33084 ft 517 kts 120°
2026-05-07 23:06 48.92170 15.05431 33083 ft 517 kts 120°
2026-05-07 23:07 48.88947 15.15211 33079 ft 516 kts 115°
2026-05-07 23:07 48.86132 15.25045 33084 ft 516 kts 114°
2026-05-07 23:08 48.83321 15.35074 33083 ft 516 kts 114°
2026-05-07 23:08 48.80519 15.45037 33080 ft 516 kts 114°
2026-05-07 23:09 48.77686 15.55031 33075 ft 514 kts 115°
2026-05-07 23:09 48.74851 15.64975 33076 ft 513 kts 115°
2026-05-07 23:10 48.72003 15.74916 33068 ft 513 kts 115°
2026-05-07 23:10 48.69170 15.84768 33068 ft 513 kts 115°
2026-05-07 23:11 48.66312 15.94668 33065 ft 513 kts 115°
2026-05-07 23:11 48.63448 16.04548 33064 ft 512 kts 115°
2026-05-07 23:12 48.60571 16.14431 33057 ft 512 kts 116°
2026-05-07 23:12 48.57701 16.24250 33034 ft 514 kts 116°
2026-05-07 23:13 48.54799 16.34139 33051 ft 515 kts 116°
2026-05-07 23:13 48.51878 16.44052 33050 ft 515 kts 116°
2026-05-07 23:14 48.48976 16.53862 33045 ft 515 kts 116°
2026-05-07 23:14 48.46042 16.63738 33020 ft 515 kts 116°
2026-05-07 23:15 48.43113 16.73559 33039 ft 512 kts 116°
2026-05-07 23:15 48.40186 16.83335 33034 ft 511 kts 116°
2026-05-07 23:16 48.37275 16.93018 33021 ft 511 kts 116°
2026-05-07 23:16 48.34331 17.02770 33020 ft 511 kts 116°
2026-05-07 23:17 48.31383 17.12501 33024 ft 511 kts 117°
2026-05-07 23:17 48.28428 17.22217 33020 ft 511 kts 117°
2026-05-07 23:18 48.25458 17.31942 33020 ft 511 kts 117°
2026-05-07 23:18 48.22504 17.41578 33016 ft 511 kts 117°
2026-05-07 23:19 48.19530 17.51241 33019 ft 510 kts 117°
2026-05-07 23:19 48.16547 17.60894 33018 ft 509 kts 117°
2026-05-07 23:20 48.13551 17.70550 33020 ft 512 kts 117°
2026-05-07 23:20 48.10538 17.80225 33019 ft 513 kts 118°
2026-05-07 23:21 48.07530 17.89847 33022 ft 513 kts 118°
2026-05-07 23:21 48.04494 17.99524 33026 ft 513 kts 118°
2026-05-07 23:22 48.01449 18.09192 33026 ft 513 kts 118°
2026-05-07 23:22 47.98416 18.18787 33032 ft 513 kts 119°
2026-05-07 23:23 47.95358 18.28419 33038 ft 513 kts 119°
2026-05-07 23:23 47.92293 18.38040 33034 ft 513 kts 119°
2026-05-07 23:24 47.89215 18.47662 33037 ft 513 kts 119°
2026-05-07 23:24 47.86136 18.57256 33039 ft 510 kts 120°
2026-05-07 23:25 47.83093 18.66702 33038 ft 509 kts 120°
2026-05-07 23:25 47.80010 18.76174 33039 ft 508 kts 122°
2026-05-07 23:26 47.76551 18.85295 32998 ft 505 kts 125°
2026-05-07 23:26 47.72945 18.94247 33041 ft 502 kts 126°
2026-05-07 23:27 47.68232 19.06139 33045 ft 503 kts 125°
2026-05-07 23:27 47.64143 19.16589 33046 ft 504 kts 124°
2026-05-07 23:28 47.61218 19.24064 33040 ft 503 kts 124°
2026-05-07 23:28 47.57699 19.33027 33047 ft 502 kts 124°
2026-05-07 23:29 47.54176 19.41958 33047 ft 502 kts 124°
2026-05-07 23:29 47.50642 19.50882 33045 ft 502 kts 124°
2026-05-07 23:30 47.47120 19.59749 33044 ft 502 kts 125°
2026-05-07 23:30 47.43578 19.68641 33046 ft 501 kts 125°
2026-05-07 23:31 47.40031 19.77514 33042 ft 501 kts 125°
2026-05-07 23:31 47.36503 19.86311 33040 ft 501 kts 125°
2026-05-07 23:32 47.32946 19.95151 33039 ft 501 kts 125°
2026-05-07 23:32 47.29377 20.03994 33059 ft 501 kts 125°
2026-05-07 23:33 47.25795 20.12836 33037 ft 502 kts 125°
2026-05-07 23:33 47.22212 20.21656 33058 ft 502 kts 125°
2026-05-07 23:34 47.18623 20.30461 33044 ft 501 kts 125°
2026-05-07 23:34 47.15058 20.39180 33048 ft 500 kts 125°
2026-05-07 23:35 47.11461 20.47950 33048 ft 500 kts 125°
2026-05-07 23:35 47.07861 20.56695 33043 ft 500 kts 125°
2026-05-07 23:36 47.04249 20.65442 33043 ft 500 kts 125°
2026-05-07 23:36 47.00635 20.74168 33042 ft 500 kts 125°
2026-05-07 23:37 46.97015 20.82880 33044 ft 500 kts 125°
2026-05-07 23:37 46.93410 20.91529 33024 ft 500 kts 125°
2026-05-07 23:38 46.89780 21.00210 33043 ft 499 kts 125°
2026-05-07 23:38 46.86152 21.08860 33043 ft 499 kts 126°
2026-05-07 23:39 46.82521 21.17487 33043 ft 499 kts 126°
2026-05-07 23:39 46.78875 21.26124 33032 ft 499 kts 125°
2026-05-07 23:40 46.75245 21.34696 33040 ft 499 kts 125°
2026-05-07 23:40 46.71587 21.43307 33037 ft 499 kts 126°
2026-05-07 23:41 46.67928 21.51924 33042 ft 500 kts 124°
2026-05-07 23:41 46.64576 21.60828 33026 ft 503 kts 121°
2026-05-07 23:42 46.61377 21.69818 33046 ft 503 kts 121°
2026-05-07 23:42 46.58115 21.78817 33027 ft 502 kts 121°
2026-05-07 23:43 46.54797 21.87784 33031 ft 502 kts 122°
2026-05-07 23:43 46.51483 21.96664 33041 ft 503 kts 122°
2026-05-07 23:44 46.48142 22.05587 33035 ft 503 kts 122°
2026-05-07 23:44 46.44787 22.14522 33045 ft 504 kts 122°
2026-05-07 23:45 46.41441 22.23405 33031 ft 504 kts 122°
2026-05-07 23:45 46.38072 22.32325 33055 ft 505 kts 122°
2026-05-07 23:46 46.34694 22.41240 33054 ft 505 kts 122°
2026-05-07 23:46 46.31306 22.50150 33057 ft 505 kts 122°
2026-05-07 23:47 46.27932 22.58992 33052 ft 505 kts 122°
2026-05-07 23:47 46.24534 22.67871 33064 ft 505 kts 122°
2026-05-07 23:48 46.21118 22.76766 33066 ft 506 kts 122°
2026-05-07 23:48 46.17692 22.85657 33068 ft 506 kts 122°
2026-05-07 23:49 46.14284 22.94475 33069 ft 506 kts 122°
2026-05-07 23:49 46.10847 23.03341 33071 ft 506 kts 122°
2026-05-07 23:50 46.07402 23.12195 33069 ft 506 kts 122°
2026-05-07 23:50 46.03951 23.21039 33051 ft 506 kts 122°
2026-05-07 23:51 46.00509 23.29831 33061 ft 506 kts 122°
2026-05-07 23:51 45.97037 23.38670 33067 ft 508 kts 122°
2026-05-07 23:52 45.93571 23.47464 33069 ft 508 kts 122°
2026-05-07 23:52 45.90084 23.56284 33080 ft 508 kts 122°
2026-05-07 23:53 45.86582 23.65115 33076 ft 508 kts 122°
2026-05-07 23:53 45.83071 23.73939 33080 ft 508 kts 122°
2026-05-07 23:54 45.79583 23.82677 33078 ft 508 kts 122°
2026-05-07 23:54 45.76065 23.91465 33075 ft 508 kts 122°
2026-05-07 23:55 45.72539 24.00244 33073 ft 508 kts 122°
2026-05-07 23:55 45.69007 24.09013 33083 ft 508 kts 122°
2026-05-07 23:56 45.65489 24.17718 33077 ft 508 kts 122°
2026-05-07 23:56 45.61951 24.26441 33081 ft 504 kts 122°
2026-05-07 23:57 45.58425 24.35110 33085 ft 504 kts 122°
2026-05-07 23:57 45.54897 24.43754 33083 ft 504 kts 122°
2026-05-07 23:58 45.51376 24.52354 33080 ft 505 kts 122°
2026-05-07 23:58 45.47809 24.61041 33087 ft 508 kts 122°
2026-05-07 23:59 45.44387 24.69353 33085 ft 508 kts 122°
2026-05-07 23:59 45.40809 24.78018 33084 ft 508 kts 122°
2026-05-08 00:00 45.37221 24.86678 33088 ft 507 kts 122°
2026-05-08 00:00 45.33629 24.95321 33086 ft 507 kts 122°
2026-05-08 00:01 45.30052 25.03900 33083 ft 507 kts 122°
2026-05-08 00:01 45.26449 25.12517 33074 ft 506 kts 123°
2026-05-08 00:02 45.22856 25.21082 33094 ft 504 kts 123°
2026-05-08 00:02 45.19265 25.29618 33067 ft 503 kts 123°
2026-05-08 00:03 45.15689 25.38093 33064 ft 503 kts 123°
2026-05-08 00:03 45.12083 25.46614 33064 ft 503 kts 123°
2026-05-08 00:04 45.08475 25.55111 33064 ft 503 kts 123°
2026-05-08 00:04 45.04863 25.63592 33055 ft 503 kts 123°
2026-05-08 00:05 45.01261 25.72024 33051 ft 505 kts 123°
2026-05-08 00:05 44.97623 25.80517 33048 ft 504 kts 123°
2026-05-08 00:06 44.93992 25.88969 33055 ft 503 kts 123°
2026-05-08 00:06 44.90343 25.97437 33054 ft 503 kts 123°
2026-05-08 00:07 44.86719 26.05820 33043 ft 502 kts 123°
2026-05-08 00:07 44.83085 26.14203 33050 ft 501 kts 123°
2026-05-08 00:08 44.79437 26.22593 33049 ft 501 kts 123°
2026-05-08 00:08 44.75795 26.30945 33040 ft 501 kts 123°
2026-05-08 00:09 44.72145 26.39292 33050 ft 500 kts 123°
2026-05-08 00:09 44.68516 26.47565 33053 ft 499 kts 123°
2026-05-08 00:10 44.64864 26.55865 33050 ft 499 kts 123°
2026-05-08 00:10 44.61204 26.64161 33054 ft 500 kts 123°
2026-05-08 00:11 44.57532 26.72458 33059 ft 500 kts 123°
2026-05-08 00:11 44.53860 26.80734 33059 ft 499 kts 123°
2026-05-08 00:12 44.50209 26.88937 33056 ft 498 kts 123°
2026-05-08 00:12 44.46535 26.97170 33059 ft 498 kts 123°
2026-05-08 00:13 44.42855 27.05392 33059 ft 498 kts 123°
2026-05-08 00:13 44.39172 27.13599 33058 ft 498 kts 123°
2026-05-08 00:14 44.35471 27.21819 33059 ft 499 kts 123°
2026-05-08 00:14 44.31764 27.30029 33063 ft 500 kts 123°
2026-05-08 00:15 44.28047 27.38239 33062 ft 500 kts 124°
2026-05-08 00:15 44.24328 27.46431 33058 ft 500 kts 123°
2026-05-08 00:16 44.20620 27.54577 33064 ft 501 kts 123°
2026-05-08 00:16 44.16871 27.62788 33070 ft 502 kts 123°
2026-05-08 00:17 44.13748 27.69609 33073 ft 502 kts 123°
2026-05-08 00:17 44.09990 27.77796 33082 ft 503 kts 123°
2026-05-08 00:18 44.06200 27.86032 33079 ft 504 kts 123°
2026-05-08 00:18 44.02411 27.94240 33082 ft 504 kts 124°
2026-05-08 00:19 43.98637 28.02393 33083 ft 504 kts 124°
2026-05-08 00:19 43.94829 28.10596 33097 ft 506 kts 123°
2026-05-08 00:20 43.91005 28.18811 33102 ft 506 kts 123°
2026-05-08 00:20 43.87198 28.26967 33100 ft 506 kts 124°
2026-05-08 00:21 43.83361 28.35164 33103 ft 507 kts 123°
2026-05-08 00:21 43.79849 28.42647 33098 ft 509 kts 123°
2026-05-08 00:22 43.77466 28.47713 33097 ft 509 kts 123°
2026-05-08 00:22 43.75142 28.52644 33100 ft 509 kts 123°
2026-05-08 00:23 43.72109 28.59067 33100 ft 509 kts 123°
2026-05-08 00:23 43.69599 28.64374 33103 ft 510 kts 123°
2026-05-08 00:24 43.67203 28.69431 33105 ft 511 kts 123°
2026-05-08 00:24 43.64017 28.76142 33108 ft 511 kts 123°
2026-05-08 00:25 43.61087 28.82298 33104 ft 511 kts 123°
2026-05-08 00:25 43.58113 28.88533 33102 ft 511 kts 123°
2026-05-08 00:26 43.55047 28.94950 33108 ft 512 kts 123°
2026-05-08 00:26 43.51595 29.02155 33106 ft 512 kts 123°
2026-05-08 00:27 43.48185 29.09254 33119 ft 512 kts 123°
2026-05-08 00:27 43.44652 29.16593 33112 ft 512 kts 123°
2026-05-08 00:28 43.40946 29.24274 33111 ft 514 kts 123°
2026-05-08 00:28 43.37247 29.31917 33108 ft 514 kts 123°
2026-05-08 00:29 43.33410 29.39826 33109 ft 514 kts 123°
2026-05-08 00:29 43.29497 29.47869 33109 ft 516 kts 123°
2026-05-08 00:30 43.25621 29.55816 33111 ft 517 kts 123°
2026-05-08 00:30 43.21652 29.63929 33112 ft 517 kts 123°
2026-05-08 00:31 43.17669 29.72050 33112 ft 517 kts 123°
2026-05-08 00:31 43.13650 29.80221 33112 ft 516 kts 123°
2026-05-08 00:32 43.09657 29.88318 33109 ft 516 kts 123°
2026-05-08 00:32 43.05629 29.96462 33115 ft 516 kts 123°
2026-05-08 00:33 43.01589 30.04608 33119 ft 517 kts 123°
2026-05-08 00:33 42.97569 30.12693 33115 ft 517 kts 123°
2026-05-08 00:34 42.93516 30.20821 33117 ft 517 kts 123°
2026-05-08 00:34 42.89450 30.28955 33121 ft 520 kts 123°
2026-05-08 00:35 42.85364 30.37105 33117 ft 520 kts 123°
2026-05-08 00:35 42.81297 30.45194 33125 ft 520 kts 123°
2026-05-08 00:36 42.77195 30.53345 33120 ft 523 kts 122°
2026-05-08 00:36 42.74046 30.62194 33121 ft 518 kts 104°
2026-05-08 00:37 42.72674 30.71792 33117 ft 517 kts 95°
2026-05-08 00:38 42.71243 30.86375 33124 ft 519 kts 94°
2026-05-08 00:38 42.70286 30.96116 33128 ft 520 kts 94°
2026-05-08 00:39 42.69285 31.05861 33127 ft 520 kts 95°
2026-05-08 00:39 42.68271 31.15541 33128 ft 520 kts 94°
2026-05-08 00:40 42.67241 31.25276 33126 ft 520 kts 95°
2026-05-08 00:40 42.66203 31.35016 33127 ft 520 kts 95°
2026-05-08 00:41 42.65156 31.44767 33124 ft 520 kts 94°
2026-05-08 00:41 42.64104 31.54476 33123 ft 519 kts 94°
2026-05-08 00:42 42.63053 31.64117 33125 ft 519 kts 94°
2026-05-08 00:42 42.61987 31.73814 33128 ft 519 kts 94°
2026-05-08 00:43 42.60912 31.83505 33146 ft 519 kts 94°
2026-05-08 00:43 42.59830 31.93190 33125 ft 518 kts 94°
2026-05-08 00:44 42.58748 32.02802 33123 ft 518 kts 94°
2026-05-08 00:44 42.57670 32.12458 33129 ft 518 kts 94°
2026-05-08 00:45 42.56567 32.22125 33120 ft 518 kts 94°
2026-05-08 00:45 42.55451 32.31785 33120 ft 518 kts 94°
2026-05-08 00:46 42.54335 32.41382 33135 ft 517 kts 95°
2026-05-08 00:46 42.53208 32.51007 33123 ft 516 kts 95°
2026-05-08 00:47 42.52074 32.60622 33122 ft 515 kts 95°
2026-05-08 00:47 42.50935 32.70221 33123 ft 515 kts 95°
2026-05-08 00:48 42.49786 32.79821 33119 ft 515 kts 95°
2026-05-08 00:48 42.48637 32.89361 33121 ft 515 kts 95°
2026-05-08 00:49 42.47473 32.98948 33119 ft 515 kts 95°
2026-05-08 00:49 42.46302 33.08525 33124 ft 516 kts 95°
2026-05-08 00:50 42.45124 33.18109 33124 ft 516 kts 95°
2026-05-08 00:50 42.43933 33.27700 33137 ft 516 kts 95°
2026-05-08 00:51 42.42736 33.37244 33118 ft 515 kts 95°
2026-05-08 00:51 42.41539 33.46754 33125 ft 515 kts 95°
2026-05-08 00:52 42.40345 33.56175 33124 ft 514 kts 95°
2026-05-08 00:52 42.39128 33.65708 33131 ft 514 kts 95°
2026-05-08 00:53 42.37916 33.75152 33124 ft 513 kts 95°
2026-05-08 00:53 42.36684 33.84676 33124 ft 513 kts 95°
2026-05-08 00:54 42.35455 33.94131 33125 ft 513 kts 95°
2026-05-08 00:54 42.34214 34.03635 33125 ft 513 kts 95°
2026-05-08 00:55 42.32964 34.13148 33124 ft 513 kts 95°
2026-05-08 00:55 42.31709 34.22637 33124 ft 513 kts 96°
2026-05-08 00:56 42.30455 34.32048 33125 ft 513 kts 96°
2026-05-08 00:56 42.29188 34.41503 33120 ft 512 kts 96°
2026-05-08 00:57 42.27912 34.50949 33129 ft 510 kts 96°
2026-05-08 00:57 42.26789 34.59188 33130 ft 507 kts 96°
2026-05-08 00:58 42.25772 34.66624 33130 ft 507 kts 96°
2026-05-08 00:58 42.24627 34.74961 33169 ft 506 kts 97°
2026-05-08 00:58 42.23989 34.79572 33503 ft 503 kts 97°
2026-05-08 00:59 42.23348 34.84202 33933 ft 500 kts 96°
2026-05-08 00:59 42.22706 34.88822 34225 ft 500 kts 96°
2026-05-08 00:59 42.22062 34.93440 34454 ft 500 kts 96°
2026-05-08 00:59 42.21418 34.98040 34694 ft 499 kts 97°
2026-05-08 01:00 42.20771 35.02650 34921 ft 499 kts 97°
2026-05-08 01:00 42.20123 35.07249 35110 ft 500 kts 97°
2026-05-08 01:00 42.19479 35.11820 35141 ft 504 kts 97°
2026-05-08 01:01 42.18161 35.21101 35145 ft 503 kts 97°
2026-05-08 01:01 42.16835 35.30364 35149 ft 503 kts 97°
2026-05-08 01:02 42.15503 35.39626 35150 ft 503 kts 97°
2026-05-08 01:02 42.14171 35.48876 35157 ft 502 kts 97°
2026-05-08 01:03 42.12842 35.58022 35150 ft 499 kts 98°
2026-05-08 01:03 42.11518 35.67085 35155 ft 499 kts 98°
2026-05-08 01:04 42.10171 35.76254 35165 ft 499 kts 98°
2026-05-08 01:04 42.09046 35.83876 35158 ft 499 kts 98°
2026-05-08 01:05 42.07688 35.93035 35156 ft 499 kts 98°
2026-05-08 01:05 42.06332 36.02118 35163 ft 499 kts 98°
2026-05-08 01:06 42.04959 36.11268 35178 ft 499 kts 98°
2026-05-08 01:06 42.03632 36.20060 35167 ft 499 kts 98°
2026-05-08 01:07 42.02314 36.28743 35166 ft 499 kts 98°
2026-05-08 01:07 42.00925 36.37842 35168 ft 499 kts 98°
2026-05-08 01:08 41.99528 36.46947 35181 ft 499 kts 98°
2026-05-08 01:08 41.98124 36.56040 35176 ft 497 kts 98°
2026-05-08 01:09 41.96834 36.64355 35174 ft 496 kts 98°
2026-05-08 01:09 41.95595 36.72306 35176 ft 496 kts 98°
2026-05-08 01:10 41.94240 36.80954 35183 ft 496 kts 99°
2026-05-08 01:10 41.92860 36.89721 35175 ft 496 kts 99°
2026-05-08 01:11 41.91424 36.98789 35180 ft 496 kts 99°
2026-05-08 01:11 41.89563 37.07381 35183 ft 500 kts 108°
2026-05-08 01:12 41.86957 37.16031 35182 ft 500 kts 110°
2026-05-08 01:12 41.84361 37.24226 35179 ft 500 kts 110°
2026-05-08 01:13 41.81692 37.32596 35179 ft 500 kts 110°
2026-05-08 01:13 41.79052 37.40896 35179 ft 500 kts 110°
2026-05-08 01:14 41.76319 37.49494 35182 ft 501 kts 110°
2026-05-08 01:14 41.73648 37.57876 35181 ft 501 kts 110°
2026-05-08 01:15 41.70902 37.66466 35181 ft 501 kts 110°
2026-05-08 01:15 41.68153 37.75040 35183 ft 501 kts 110°
2026-05-08 01:16 41.65398 37.83605 35185 ft 501 kts 110°
2026-05-08 01:16 41.62635 37.92167 35184 ft 501 kts 110°
2026-05-08 01:17 41.59974 38.00392 35191 ft 501 kts 110°
2026-05-08 01:17 41.57261 38.08751 35180 ft 502 kts 110°
2026-05-08 01:18 41.54670 38.16709 35184 ft 502 kts 110°
2026-05-08 01:18 41.52205 38.24258 35182 ft 502 kts 110°
2026-05-08 01:19 41.49446 38.32682 35188 ft 503 kts 110°
2026-05-08 01:19 41.46631 38.41253 35177 ft 504 kts 110°
2026-05-08 01:20 41.43812 38.49809 35169 ft 502 kts 111°
2026-05-08 01:20 41.41020 38.58253 35186 ft 501 kts 111°
2026-05-08 01:21 41.38196 38.66773 35183 ft 503 kts 111°
2026-05-08 01:21 41.35360 38.75303 35181 ft 503 kts 111°
2026-05-08 01:22 41.32545 38.83777 35182 ft 503 kts 110°
2026-05-08 01:22 41.29881 38.91935 35184 ft 504 kts 110°
2026-05-08 01:23 41.27082 39.00507 35183 ft 505 kts 110°
2026-05-08 01:23 41.24272 39.09064 35187 ft 505 kts 111°
2026-05-08 01:24 41.21467 39.17567 35187 ft 505 kts 111°
2026-05-08 01:24 41.18558 39.26069 35186 ft 506 kts 112°
2026-05-08 01:25 41.15567 39.34530 35185 ft 506 kts 112°
2026-05-08 01:25 41.12579 39.42985 35186 ft 506 kts 112°
2026-05-08 01:26 41.09597 39.51451 35188 ft 506 kts 112°
2026-05-08 01:26 41.06617 39.59908 35185 ft 506 kts 112°
2026-05-08 01:27 41.03632 39.68355 35189 ft 506 kts 112°
2026-05-08 01:27 41.00797 39.76839 35186 ft 505 kts 106°
2026-05-08 01:28 40.99510 39.85896 35182 ft 500 kts 91°
2026-05-08 01:28 40.99190 39.95069 35183 ft 501 kts 89°
2026-05-08 01:29 40.99014 40.04303 35189 ft 501 kts 89°
2026-05-08 01:29 40.98821 40.13545 35195 ft 503 kts 89°
2026-05-08 01:30 40.98591 40.22788 35190 ft 502 kts 89°
2026-05-08 01:30 40.98340 40.32019 35191 ft 501 kts 90°
2026-05-08 01:31 40.98078 40.41244 35189 ft 501 kts 90°
2026-05-08 01:31 40.97813 40.50418 35192 ft 502 kts 90°
2026-05-08 01:32 40.97540 40.59664 35188 ft 503 kts 90°
2026-05-08 01:32 40.97259 40.68913 35188 ft 503 kts 90°
2026-05-08 01:33 40.96972 40.78163 35188 ft 503 kts 90°
2026-05-08 01:33 40.96675 40.87427 35192 ft 503 kts 90°
2026-05-08 01:34 40.96372 40.96660 35190 ft 504 kts 90°
2026-05-08 01:34 40.96060 41.05923 35191 ft 504 kts 90°
2026-05-08 01:35 40.95741 41.15201 35197 ft 504 kts 91°
2026-05-08 01:35 40.95414 41.24480 35198 ft 504 kts 91°
2026-05-08 01:36 40.95082 41.33685 35204 ft 505 kts 91°
2026-05-08 01:36 40.94740 41.42978 35201 ft 506 kts 91°
2026-05-08 01:37 40.94389 41.52269 35216 ft 506 kts 91°
2026-05-08 01:37 40.94030 41.61568 35224 ft 506 kts 91°
2026-05-08 01:38 40.93664 41.70863 35227 ft 506 kts 91°
2026-05-08 01:38 40.93291 41.80173 35235 ft 507 kts 91°
2026-05-08 01:39 40.92913 41.89414 35240 ft 507 kts 92°
2026-05-08 01:39 40.92525 41.98726 35240 ft 507 kts 92°
2026-05-08 01:40 40.92129 42.08049 35241 ft 507 kts 92°
2026-05-08 01:40 40.91726 42.17364 35246 ft 508 kts 92°
2026-05-08 01:41 40.91316 42.26646 35245 ft 509 kts 92°
2026-05-08 01:41 40.90897 42.35986 35248 ft 508 kts 92°
2026-05-08 01:42 40.90470 42.45309 35245 ft 508 kts 92°
2026-05-08 01:42 40.90035 42.54638 35248 ft 508 kts 93°
2026-05-08 01:43 40.89593 42.63989 35250 ft 510 kts 93°
2026-05-08 01:43 40.89141 42.73353 35249 ft 510 kts 93°
2026-05-08 01:44 40.88685 42.82652 35248 ft 510 kts 93°
2026-05-08 01:44 40.88219 42.92017 35249 ft 509 kts 93°
2026-05-08 01:45 40.87745 43.01376 35241 ft 512 kts 94°
2026-05-08 01:45 40.87262 43.10770 35237 ft 513 kts 94°
2026-05-08 01:46 40.86770 43.20178 35233 ft 513 kts 94°
2026-05-08 01:46 40.86273 43.29529 35227 ft 513 kts 94°
2026-05-08 01:47 40.85766 43.38941 35227 ft 513 kts 94°
2026-05-08 01:47 40.85253 43.48329 35222 ft 513 kts 94°
2026-05-08 01:48 40.84471 43.62360 35219 ft 512 kts 94°
2026-05-08 01:48 40.83950 43.71754 35220 ft 512 kts 93°
2026-05-08 01:49 40.83631 43.81178 35219 ft 514 kts 92°
2026-05-08 01:49 40.83378 43.90572 35213 ft 515 kts 92°
2026-05-08 01:50 40.83087 44.00022 35214 ft 515 kts 93°
2026-05-08 01:50 40.82765 44.09480 35208 ft 515 kts 93°
2026-05-08 01:51 40.82429 44.18937 35200 ft 515 kts 93°
2026-05-08 01:51 40.82085 44.28399 35200 ft 517 kts 94°
2026-05-08 01:52 40.81733 44.37882 35199 ft 517 kts 94°
2026-05-08 01:52 40.81378 44.47305 35200 ft 517 kts 94°
2026-05-08 01:53 40.81011 44.56795 35204 ft 517 kts 94°
2026-05-08 01:53 40.80701 44.64684 35194 ft 518 kts 95°
2026-05-08 01:54 40.80318 44.74194 35196 ft 519 kts 95°
2026-05-08 01:54 40.79926 44.83728 35191 ft 520 kts 95°
2026-05-08 01:55 40.79531 44.93201 35194 ft 520 kts 95°
2026-05-08 01:55 40.79126 45.02727 35193 ft 519 kts 95°
2026-05-08 01:56 40.78712 45.12253 35194 ft 521 kts 95°
2026-05-08 01:56 40.78290 45.21806 35189 ft 521 kts 95°
2026-05-08 01:57 40.77859 45.31356 35183 ft 521 kts 96°
2026-05-08 01:57 40.77422 45.40843 35184 ft 521 kts 96°
2026-05-08 01:58 40.76976 45.50407 35175 ft 522 kts 96°
2026-05-08 01:58 40.76282 45.59959 35181 ft 524 kts 100°
2026-05-08 01:59 40.75335 45.69485 35176 ft 524 kts 101°
2026-05-08 01:59 40.74401 45.79023 35173 ft 524 kts 100°
2026-05-08 02:00 40.73506 45.88569 35164 ft 524 kts 101°
2026-05-08 02:00 40.72626 45.98066 35164 ft 525 kts 101°
2026-05-08 02:01 40.71733 46.07646 35160 ft 526 kts 101°
2026-05-08 02:01 40.70832 46.17223 35159 ft 526 kts 101°
2026-05-08 02:02 40.69927 46.26728 35138 ft 526 kts 101°
2026-05-08 02:02 40.69007 46.36310 35154 ft 527 kts 101°
2026-05-08 02:03 40.68078 46.45885 35153 ft 527 kts 101°
2026-05-08 02:03 40.67140 46.55479 35159 ft 527 kts 101°
2026-05-08 02:04 40.66195 46.65058 35156 ft 527 kts 102°
2026-05-08 02:04 40.65239 46.74666 35160 ft 530 kts 102°
2026-05-08 02:05 40.64278 46.84241 35157 ft 531 kts 102°
2026-05-08 02:05 40.63302 46.93882 35154 ft 531 kts 102°
2026-05-08 02:06 40.62319 47.03523 35157 ft 531 kts 102°
2026-05-08 02:06 40.61325 47.13179 35157 ft 532 kts 103°
2026-05-08 02:07 40.60674 47.22905 35153 ft 538 kts 97°
2026-05-08 02:07 40.60359 47.32774 35157 ft 540 kts 97°
2026-05-08 02:08 40.60089 47.42668 35157 ft 540 kts 97°
2026-05-08 02:08 40.59813 47.52475 35157 ft 540 kts 97°
2026-05-08 02:09 40.59515 47.62357 35140 ft 540 kts 97°
2026-05-08 02:09 40.59205 47.72230 35154 ft 540 kts 97°
2026-05-08 02:10 40.58886 47.82111 35154 ft 540 kts 97°
2026-05-08 02:10 40.58560 47.91969 35151 ft 539 kts 97°
2026-05-08 02:11 40.58397 48.01794 35154 ft 543 kts 93°
2026-05-08 02:11 40.58758 48.11745 35154 ft 545 kts 91°
2026-05-08 02:12 40.59157 48.21696 35150 ft 545 kts 92°
2026-05-08 02:12 40.59468 48.31683 35151 ft 545 kts 92°
2026-05-08 02:13 40.59720 48.41581 35150 ft 544 kts 92°
2026-05-08 02:13 40.59958 48.51540 35148 ft 545 kts 92°
2026-05-08 02:14 40.60188 48.61525 35153 ft 545 kts 92°
2026-05-08 02:14 40.60412 48.71510 35152 ft 546 kts 93°
2026-05-08 02:15 40.60628 48.81447 35153 ft 546 kts 93°
2026-05-08 02:15 40.60839 48.91438 35141 ft 546 kts 93°
2026-05-08 02:16 40.61040 49.01448 35126 ft 546 kts 93°
2026-05-08 02:16 40.61231 49.11458 35133 ft 546 kts 93°
2026-05-08 02:17 40.60962 49.21316 35123 ft 537 kts 105°
2026-05-08 02:17 40.59628 49.30969 35128 ft 534 kts 107°
2026-05-08 02:18 40.58110 49.40535 35106 ft 533 kts 108°
2026-05-08 02:18 40.56561 49.50095 35106 ft 534 kts 108°
2026-05-08 02:19 40.54991 49.59578 35111 ft 534 kts 108°
2026-05-08 02:19 40.53396 49.69145 35090 ft 534 kts 108°
2026-05-08 02:20 40.51806 49.78688 35081 ft 534 kts 108°
2026-05-08 02:20 40.50221 49.88171 35100 ft 535 kts 108°
2026-05-08 02:21 40.48616 49.97724 35102 ft 535 kts 108°
2026-05-08 02:21 40.47011 50.07272 35103 ft 535 kts 107°
2026-05-08 02:22 40.45666 50.16926 35091 ft 538 kts 104°
2026-05-08 02:22 40.44451 50.26600 35101 ft 538 kts 104°
2026-05-08 02:23 40.43196 50.36267 35103 ft 538 kts 105°
2026-05-08 02:23 40.42250 50.43310 35103 ft 538 kts 105°
2026-05-08 02:24 40.41345 50.49957 35103 ft 538 kts 105°
2026-05-08 02:24 40.40280 50.57717 35107 ft 538 kts 105°
2026-05-08 02:25 40.39094 50.66319 35111 ft 538 kts 105°
2026-05-08 02:25 40.37958 50.74515 35116 ft 538 kts 105°
2026-05-08 02:26 40.36727 50.83364 35121 ft 538 kts 105°
2026-05-08 02:26 40.35469 50.92349 35103 ft 538 kts 105°
2026-05-08 02:27 40.34155 51.01675 35128 ft 538 kts 105°
2026-05-08 02:27 40.32789 51.11316 35131 ft 538 kts 105°
2026-05-08 02:28 40.31426 51.20874 35129 ft 538 kts 105°
2026-05-08 02:28 40.30046 51.30491 35106 ft 538 kts 106°
2026-05-08 02:29 40.28660 51.40086 35129 ft 539 kts 106°
2026-05-08 02:29 40.27296 51.49476 35129 ft 539 kts 106°
2026-05-08 02:30 40.25985 51.58468 35130 ft 539 kts 106°
2026-05-08 02:30 40.24619 51.67764 35129 ft 539 kts 106°
2026-05-08 02:31 40.23194 51.77405 35130 ft 539 kts 106°
2026-05-08 02:31 40.21759 51.87054 35130 ft 539 kts 106°
2026-05-08 02:32 40.20327 51.96634 35129 ft 539 kts 106°
2026-05-08 02:32 40.18879 52.06259 35116 ft 539 kts 107°
2026-05-08 02:33 40.17418 52.15913 35112 ft 541 kts 107°
2026-05-08 02:33 40.15946 52.25579 35127 ft 542 kts 107°
2026-05-08 02:34 40.14475 52.35186 35128 ft 542 kts 107°
2026-05-08 02:34 40.12986 52.44861 35119 ft 543 kts 107°
2026-05-08 02:35 40.11483 52.54561 35132 ft 545 kts 107°
2026-05-08 02:35 40.09971 52.64265 35132 ft 545 kts 107°
2026-05-08 02:36 40.08461 52.73907 35125 ft 546 kts 107°
2026-05-08 02:36 40.06928 52.83629 35123 ft 548 kts 108°
2026-05-08 02:37 40.05378 52.93403 35131 ft 550 kts 108°
2026-05-08 02:37 40.03535 53.03053 35133 ft 543 kts 116°
2026-05-08 02:38 40.01032 53.12316 35127 ft 540 kts 117°
2026-05-08 02:38 39.98427 53.21447 35129 ft 541 kts 118°
2026-05-08 02:39 39.95775 53.30665 35131 ft 543 kts 118°
2026-05-08 02:39 39.93127 53.39892 35125 ft 543 kts 118°
2026-05-08 02:40 39.90478 53.49128 35114 ft 545 kts 119°
2026-05-08 02:40 39.87813 53.58382 35122 ft 546 kts 119°
2026-05-08 02:41 39.85152 53.67593 35120 ft 546 kts 119°
2026-05-08 02:41 39.82467 53.76858 35107 ft 547 kts 120°
2026-05-08 02:42 39.79760 53.86156 35113 ft 549 kts 120°
2026-05-08 02:42 39.77065 53.95387 35113 ft 549 kts 120°
2026-05-08 02:43 39.74340 54.04687 35085 ft 550 kts 120°
2026-05-08 02:43 39.72064 54.12424 35113 ft 551 kts 120°
2026-05-08 02:44 39.68866 54.23260 35113 ft 552 kts 120°
2026-05-08 02:44 39.66574 54.31002 35116 ft 552 kts 120°
2026-05-08 02:45 39.63812 54.40300 35118 ft 553 kts 120°
2026-05-08 02:45 39.61043 54.49606 35118 ft 553 kts 120°
2026-05-08 02:46 39.58258 54.58919 35117 ft 553 kts 120°
2026-05-08 02:46 39.55463 54.68216 35105 ft 554 kts 120°
2026-05-08 02:47 39.52671 54.77481 35118 ft 556 kts 120°
2026-05-08 02:47 39.49850 54.86821 35118 ft 557 kts 120°
2026-05-08 02:48 39.47022 54.96151 35113 ft 556 kts 120°
2026-05-08 02:48 39.44187 55.05470 35108 ft 556 kts 120°
2026-05-08 02:49 39.41344 55.14782 35118 ft 556 kts 120°
2026-05-08 02:49 39.38491 55.24093 35107 ft 556 kts 120°
2026-05-08 02:50 39.35640 55.33358 35117 ft 558 kts 120°
2026-05-08 02:50 39.32760 55.42691 35117 ft 559 kts 120°
2026-05-08 02:51 39.29876 55.52013 35103 ft 559 kts 120°
2026-05-08 02:51 39.26910 55.61290 35114 ft 556 kts 124°
2026-05-08 02:52 39.23477 55.70191 35112 ft 552 kts 127°
2026-05-08 02:52 39.19945 55.78989 35101 ft 552 kts 126°
2026-05-08 02:53 39.16465 55.87840 35120 ft 554 kts 126°
2026-05-08 02:53 39.13036 55.96692 35117 ft 555 kts 125°
2026-05-08 02:54 39.09588 56.05615 35099 ft 555 kts 125°
2026-05-08 02:54 39.06139 56.14507 35104 ft 555 kts 126°
2026-05-08 02:55 39.00957 56.27832 35108 ft 557 kts 124°
2026-05-08 02:56 38.98117 56.37144 35100 ft 566 kts 117°
2026-05-08 02:56 38.95474 56.46715 35099 ft 569 kts 117°
2026-05-08 02:57 38.92864 56.56319 35100 ft 569 kts 117°
2026-05-08 02:57 38.90229 56.65923 35094 ft 569 kts 116°
2026-05-08 02:58 38.87594 56.75439 35097 ft 569 kts 116°
2026-05-08 02:58 38.84927 56.85018 35088 ft 569 kts 116°
2026-05-08 02:59 38.82252 56.94590 35095 ft 570 kts 116°
2026-05-08 02:59 38.79572 57.04149 35090 ft 569 kts 116°
2026-05-08 03:00 38.76886 57.13701 35091 ft 569 kts 116°
2026-05-08 03:00 38.74206 57.23188 35090 ft 569 kts 116°
2026-05-08 03:01 38.71500 57.32737 35080 ft 569 kts 116°
2026-05-08 03:01 38.68795 57.42249 35081 ft 569 kts 116°
2026-05-08 03:02 38.66075 57.51776 35076 ft 569 kts 116°
2026-05-08 03:02 38.63347 57.61296 35060 ft 569 kts 116°
2026-05-08 03:03 38.60582 57.70720 35077 ft 567 kts 118°
2026-05-08 03:03 38.57377 57.79898 35074 ft 564 kts 121°
2026-05-08 03:04 38.54054 57.88993 35070 ft 564 kts 121°
2026-05-08 03:04 38.50785 57.98109 35067 ft 565 kts 120°
2026-05-08 03:05 38.47546 58.07272 35063 ft 566 kts 120°
2026-05-08 03:05 38.44336 58.16375 35062 ft 566 kts 120°
2026-05-08 03:06 38.41106 58.25532 35057 ft 567 kts 118°
2026-05-08 03:06 38.38722 58.35179 35061 ft 572 kts 109°
2026-05-08 03:07 38.36725 58.45032 35061 ft 574 kts 107°
2026-05-08 03:07 38.34801 58.54846 35061 ft 574 kts 107°
2026-05-08 03:08 38.32846 58.64705 35065 ft 573 kts 107°
2026-05-08 03:08 38.30868 58.74539 35063 ft 572 kts 107°
2026-05-08 03:09 38.28877 58.84349 35061 ft 572 kts 107°
2026-05-08 03:09 38.26891 58.94090 35055 ft 572 kts 108°
2026-05-08 03:10 38.24886 59.03879 35057 ft 571 kts 107°
2026-05-08 03:10 38.22878 59.13651 35059 ft 571 kts 107°
2026-05-08 03:11 38.20858 59.23430 35058 ft 571 kts 107°
2026-05-08 03:11 38.18833 59.33190 35054 ft 571 kts 107°
2026-05-08 03:12 38.16806 59.42913 35052 ft 571 kts 107°
2026-05-08 03:12 38.14760 59.52686 35054 ft 570 kts 107°
2026-05-08 03:13 38.12726 59.62356 35049 ft 570 kts 106°
2026-05-08 03:13 38.10668 59.72096 35051 ft 570 kts 107°
2026-05-08 03:14 38.08605 59.81820 35031 ft 570 kts 107°
2026-05-08 03:14 38.06533 59.91537 35050 ft 570 kts 106°
2026-05-08 03:15 38.04468 60.01183 35052 ft 569 kts 106°
2026-05-08 03:15 38.02378 60.10876 35049 ft 569 kts 107°
2026-05-08 03:15 38.01013 60.15568 35049 ft 566 kts 118°
2026-05-08 03:16 37.99082 60.19878 35041 ft 559 kts 129°
2026-05-08 03:16 37.94140 60.27406 35047 ft 553 kts 136°
2026-05-08 03:17 37.88915 60.34557 35045 ft 552 kts 137°
2026-05-08 03:17 37.83696 60.41607 35020 ft 552 kts 137°
2026-05-08 03:18 37.78451 60.48743 35047 ft 553 kts 137°
2026-05-08 03:18 37.73206 60.55889 35044 ft 553 kts 138°
2026-05-08 03:19 37.67817 60.62833 35030 ft 552 kts 140°
2026-05-08 03:19 37.62413 60.69643 35048 ft 552 kts 140°
2026-05-08 03:20 37.56994 60.76507 35048 ft 552 kts 139°
2026-05-08 03:20 37.51583 60.83390 35037 ft 553 kts 139°
2026-05-08 03:21 37.46154 60.90294 35051 ft 552 kts 139°
2026-05-08 03:21 37.40744 60.97158 35054 ft 552 kts 139°
2026-05-08 03:22 37.35360 61.03973 35050 ft 552 kts 139°
2026-05-08 03:22 37.29934 61.10825 35052 ft 552 kts 139°
2026-05-08 03:23 37.24502 61.17668 35051 ft 552 kts 139°
2026-05-08 03:23 37.19075 61.24497 35050 ft 552 kts 139°
2026-05-08 03:24 37.13643 61.31308 35055 ft 551 kts 139°
2026-05-08 03:24 37.08242 61.38052 35051 ft 551 kts 139°
2026-05-08 03:25 37.02806 61.44828 35048 ft 551 kts 139°
2026-05-08 03:25 36.97374 61.51590 35051 ft 550 kts 139°
2026-05-08 03:26 36.91937 61.58344 35055 ft 550 kts 139°
2026-05-08 03:26 36.86500 61.65086 35048 ft 550 kts 139°
2026-05-08 03:27 36.81097 61.71777 35051 ft 550 kts 139°
2026-05-08 03:27 36.75658 61.78496 35057 ft 550 kts 139°
2026-05-08 03:28 36.70219 61.85202 35049 ft 549 kts 139°
2026-05-08 03:28 36.64788 61.91885 35062 ft 548 kts 139°
2026-05-08 03:29 36.59351 61.98559 35073 ft 548 kts 138°
2026-05-08 03:29 36.53945 62.05182 35059 ft 548 kts 138°
2026-05-08 03:30 36.45785 62.15154 35063 ft 548 kts 138°
2026-05-08 03:31 36.35821 62.27288 35058 ft 548 kts 138°
2026-05-08 03:32 36.26750 62.38295 35079 ft 549 kts 138°
2026-05-08 03:32 36.22174 62.43834 35059 ft 549 kts 138°
2026-05-08 03:33 36.16748 62.50388 35071 ft 548 kts 138°
2026-05-08 03:33 36.11285 62.56974 35072 ft 548 kts 138°
2026-05-08 03:34 36.05824 62.63544 35057 ft 548 kts 138°
2026-05-08 03:34 36.00348 62.70118 35070 ft 547 kts 138°
2026-05-08 03:35 35.94881 62.76669 35072 ft 547 kts 138°
2026-05-08 03:35 35.89411 62.83210 35073 ft 547 kts 138°
2026-05-08 03:36 35.83973 62.89698 35075 ft 546 kts 138°
2026-05-08 03:36 35.78500 62.96215 35075 ft 546 kts 138°
2026-05-08 03:37 35.73030 63.02716 35074 ft 546 kts 138°
2026-05-08 03:37 35.67591 63.09168 35081 ft 546 kts 138°
2026-05-08 03:38 35.62115 63.15650 35082 ft 546 kts 138°
2026-05-08 03:38 35.56919 63.22495 35079 ft 549 kts 130°
2026-05-08 03:39 35.52191 63.29874 35082 ft 550 kts 128°
2026-05-08 03:39 35.47555 63.37310 35088 ft 551 kts 128°
2026-05-08 03:40 35.42894 63.44779 35099 ft 550 kts 128°
2026-05-08 03:40 35.38209 63.52238 35094 ft 552 kts 128°
2026-05-08 03:41 35.33509 63.59685 35103 ft 553 kts 128°
2026-05-08 03:41 35.28824 63.67098 35105 ft 553 kts 128°
2026-05-08 03:42 35.24118 63.74569 35126 ft 552 kts 128°
2026-05-08 03:42 35.19417 63.82023 35104 ft 554 kts 128°
2026-05-08 03:43 35.14727 63.89443 35118 ft 555 kts 128°
2026-05-08 03:43 35.09994 63.96911 35117 ft 555 kts 128°
2026-05-08 03:44 35.05259 64.04366 35115 ft 555 kts 128°
2026-05-08 03:44 35.00508 64.11829 35125 ft 557 kts 128°
2026-05-08 03:45 34.95781 64.19244 35113 ft 557 kts 128°
2026-05-08 03:45 34.91012 64.26706 35133 ft 557 kts 128°
2026-05-08 03:46 34.86240 64.34153 35138 ft 557 kts 128°
2026-05-08 03:46 34.81464 64.41595 35157 ft 558 kts 128°
2026-05-08 03:47 34.76679 64.49033 35169 ft 558 kts 128°
2026-05-08 03:47 34.71915 64.56425 35182 ft 558 kts 128°
2026-05-08 03:48 34.67117 64.63855 35181 ft 558 kts 128°
2026-05-08 03:48 34.62311 64.71278 35193 ft 559 kts 129°
2026-05-08 03:49 34.57526 64.78654 35201 ft 558 kts 129°
2026-05-08 03:49 34.52707 64.86068 35192 ft 558 kts 129°
2026-05-08 03:50 34.47916 64.93423 35202 ft 559 kts 129°
2026-05-08 03:50 34.43085 65.00806 35207 ft 559 kts 129°
2026-05-08 03:51 34.38239 65.08191 35203 ft 559 kts 129°
2026-05-08 03:51 34.33389 65.15571 35203 ft 560 kts 129°
2026-05-08 03:52 34.28538 65.22938 35200 ft 560 kts 129°
2026-05-08 03:52 34.23680 65.30303 35204 ft 560 kts 129°
2026-05-08 03:53 34.18814 65.37665 35197 ft 560 kts 129°
2026-05-08 03:53 34.13973 65.44973 35186 ft 560 kts 129°
2026-05-08 03:54 34.09086 65.52335 35177 ft 561 kts 129°
2026-05-08 03:54 34.04200 65.59688 35176 ft 562 kts 129°
2026-05-08 03:55 33.99313 65.67041 35164 ft 561 kts 128°
2026-05-08 03:55 33.94464 65.74325 35148 ft 560 kts 129°
2026-05-08 03:56 33.89578 65.81645 35154 ft 559 kts 129°
2026-05-08 03:56 33.84693 65.88949 35158 ft 561 kts 129°
2026-05-08 03:57 33.79797 65.96255 35142 ft 560 kts 128°
2026-05-08 03:57 33.74905 66.03544 35149 ft 560 kts 129°
2026-05-08 03:58 33.70000 66.10836 35129 ft 561 kts 129°
2026-05-08 03:58 33.65079 66.18133 35118 ft 562 kts 129°
2026-05-08 03:59 33.60184 66.25380 35132 ft 562 kts 129°
2026-05-08 03:59 33.55260 66.32656 35109 ft 560 kts 129°
2026-05-08 04:00 33.50347 66.39902 35108 ft 560 kts 128°
2026-05-08 04:00 33.45456 66.47100 35385 ft 558 kts 129°
2026-05-08 04:00 33.43000 66.50701 35713 ft 556 kts 129°
2026-05-08 04:01 33.40552 66.54277 36008 ft 556 kts 129°
2026-05-08 04:01 33.38093 66.57865 36258 ft 558 kts 129°
2026-05-08 04:01 33.35631 66.61450 36505 ft 557 kts 129°
2026-05-08 04:01 33.33167 66.65035 36773 ft 557 kts 129°
2026-05-08 04:02 33.30701 66.68620 36954 ft 558 kts 129°
2026-05-08 04:02 33.25739 66.75824 37126 ft 563 kts 129°
2026-05-08 04:03 33.20737 66.83080 37147 ft 567 kts 130°
2026-05-08 04:03 33.13233 66.93940 37155 ft 567 kts 129°
2026-05-08 04:04 33.08205 67.01197 37141 ft 568 kts 130°
2026-05-08 04:04 33.03161 67.08464 37117 ft 568 kts 130°
2026-05-08 04:05 32.98096 67.15746 37117 ft 571 kts 130°
2026-05-08 04:05 32.93053 67.22982 37101 ft 569 kts 130°
2026-05-08 04:06 32.88000 67.30220 37069 ft 568 kts 129°
2026-05-08 04:06 32.82946 67.37442 37068 ft 567 kts 129°
2026-05-08 04:07 32.77896 67.44647 37054 ft 567 kts 130°
2026-05-08 04:07 32.72754 67.51761 37047 ft 567 kts 131°
2026-05-08 04:08 32.67531 67.58694 37050 ft 565 kts 132°
2026-05-08 04:08 32.62282 67.65659 37044 ft 564 kts 131°
2026-05-08 04:09 32.57070 67.72610 37042 ft 563 kts 131°
2026-05-08 04:09 32.51865 67.79565 37045 ft 564 kts 131°
2026-05-08 04:10 32.46754 67.86535 37045 ft 564 kts 129°
2026-05-08 04:10 32.41795 67.93736 37048 ft 564 kts 129°
2026-05-08 04:11 32.36853 68.00941 37045 ft 564 kts 129°
2026-05-08 04:11 32.31865 68.08124 37045 ft 564 kts 129°
2026-05-08 04:12 32.26867 68.15266 37042 ft 564 kts 129°
2026-05-08 04:12 32.21855 68.22406 37045 ft 564 kts 129°
2026-05-08 04:13 32.16868 68.29499 37034 ft 565 kts 129°
2026-05-08 04:13 32.11835 68.36647 37032 ft 565 kts 129°
2026-05-08 04:14 32.06802 68.43782 37030 ft 566 kts 129°
2026-05-08 04:14 32.01761 68.50915 37017 ft 566 kts 129°
2026-05-08 04:15 31.96718 68.58038 37015 ft 566 kts 129°
2026-05-08 04:15 31.91704 68.65104 37009 ft 566 kts 129°
2026-05-08 04:16 31.86646 68.72222 37009 ft 566 kts 129°
2026-05-08 04:16 31.81592 68.79320 37000 ft 565 kts 129°
2026-05-08 04:17 31.76532 68.86414 37001 ft 565 kts 129°
2026-05-08 04:17 31.71500 68.93454 36988 ft 565 kts 129°
2026-05-08 04:18 31.66442 69.00518 36976 ft 564 kts 129°
2026-05-08 04:18 31.61505 69.07696 36979 ft 565 kts 127°
2026-05-08 04:19 31.57486 69.13748 36969 ft 566 kts 127°
2026-05-08 04:19 31.52631 69.21032 36983 ft 567 kts 127°
2026-05-08 04:20 31.47751 69.28281 36959 ft 566 kts 127°
2026-05-08 04:20 31.42857 69.35508 36957 ft 566 kts 127°
2026-05-08 04:21 31.37647 69.42373 36954 ft 568 kts 140°
2026-05-08 04:21 31.34460 69.45081 36960 ft 564 kts 152°
2026-05-08 04:21 31.30933 69.47041 36961 ft 558 kts 164°
2026-05-08 04:22 31.23467 69.49335 36959 ft 553 kts 172°
2026-05-08 04:22 31.15932 69.51152 36959 ft 553 kts 173°
2026-05-08 04:23 31.08433 69.52931 36984 ft 553 kts 172°
2026-05-08 04:23 31.00887 69.54772 36958 ft 554 kts 172°
2026-05-08 04:24 30.93336 69.56643 36941 ft 554 kts 172°
2026-05-08 04:24 30.85840 69.58505 36953 ft 554 kts 172°
2026-05-08 04:25 30.78295 69.60373 36943 ft 554 kts 172°
2026-05-08 04:25 30.70750 69.62236 36940 ft 553 kts 172°
2026-05-08 04:26 30.63207 69.64095 36934 ft 553 kts 172°
2026-05-08 04:26 30.55715 69.65938 36934 ft 554 kts 172°
2026-05-08 04:27 30.48166 69.67793 36923 ft 554 kts 172°
2026-05-08 04:27 30.40608 69.69648 36922 ft 554 kts 172°
2026-05-08 04:28 30.33103 69.71488 36912 ft 554 kts 172°
2026-05-08 04:28 30.25557 69.73334 36922 ft 554 kts 172°
2026-05-08 04:29 30.18024 69.75355 36893 ft 556 kts 169°
2026-05-08 04:29 30.10528 69.77613 36908 ft 556 kts 169°
2026-05-08 04:30 30.03038 69.79857 36900 ft 556 kts 169°
2026-05-08 04:30 29.95535 69.82057 36899 ft 556 kts 170°
2026-05-08 04:31 29.88069 69.84223 36882 ft 555 kts 170°
2026-05-08 04:31 29.80562 69.86395 36892 ft 555 kts 170°
2026-05-08 04:32 29.73057 69.88563 36872 ft 556 kts 170°
2026-05-08 04:32 29.65582 69.90721 36861 ft 556 kts 170°
2026-05-08 04:33 29.58061 69.92890 36849 ft 556 kts 169°
2026-05-08 04:33 29.50547 69.95054 36837 ft 556 kts 169°
2026-05-08 04:34 29.43024 69.97217 36838 ft 556 kts 169°
2026-05-08 04:34 29.35545 69.99364 36835 ft 557 kts 170°
2026-05-08 04:35 29.28033 70.01516 36823 ft 557 kts 170°
2026-05-08 04:35 29.20510 70.03669 36829 ft 557 kts 170°
2026-05-08 04:36 29.12994 70.05818 36809 ft 556 kts 170°
2026-05-08 04:36 29.05513 70.07953 36805 ft 556 kts 170°
2026-05-08 04:37 28.97991 70.10096 36802 ft 556 kts 170°
2026-05-08 04:37 28.90475 70.12234 36802 ft 556 kts 170°
2026-05-08 04:38 28.83011 70.14354 36797 ft 556 kts 170°
2026-05-08 04:38 28.75500 70.16484 36795 ft 556 kts 170°
2026-05-08 04:39 28.67983 70.18613 36797 ft 556 kts 170°
2026-05-08 04:39 28.60458 70.20740 36791 ft 556 kts 170°
2026-05-08 04:40 28.52984 70.22851 36790 ft 556 kts 170°
2026-05-08 04:40 28.45463 70.25035 36788 ft 559 kts 166°
2026-05-08 04:41 28.41826 70.26680 36790 ft 563 kts 155°
2026-05-08 04:41 28.38478 70.29021 36788 ft 567 kts 143°
2026-05-08 04:41 28.35573 70.32051 36770 ft 568 kts 130°
2026-05-08 04:41 28.33251 70.35676 36780 ft 567 kts 117°
2026-05-08 04:42 28.29648 70.43601 36780 ft 569 kts 112°
2026-05-08 04:42 28.26279 70.51749 36777 ft 570 kts 112°
2026-05-08 04:43 28.22885 70.59893 36783 ft 570 kts 112°
2026-05-08 04:43 28.19438 70.67996 36783 ft 570 kts 113°
2026-05-08 04:44 28.15987 70.76030 36779 ft 570 kts 113°
2026-05-08 04:44 28.12508 70.84109 36774 ft 571 kts 113°
2026-05-08 04:45 28.09021 70.92196 36788 ft 570 kts 113°
2026-05-08 04:45 28.05534 71.00271 36782 ft 571 kts 113°
2026-05-08 04:46 28.02042 71.08342 36782 ft 571 kts 113°
2026-05-08 04:46 27.98544 71.16411 36785 ft 571 kts 113°
2026-05-08 04:47 27.95062 71.24429 36784 ft 571 kts 113°
2026-05-08 04:47 27.91551 71.32495 36785 ft 571 kts 114°
2026-05-08 04:48 27.88041 71.40545 36784 ft 571 kts 114°
2026-05-08 04:48 27.84476 71.48570 36785 ft 571 kts 115°
2026-05-08 04:49 27.80812 71.56470 36804 ft 571 kts 115°
2026-05-08 04:49 27.77106 71.64425 36787 ft 571 kts 115°
2026-05-08 04:50 27.73417 71.72379 36790 ft 571 kts 115°
2026-05-08 04:50 27.69739 71.80326 36786 ft 571 kts 115°
2026-05-08 04:51 27.66084 71.88212 36791 ft 571 kts 115°
2026-05-08 04:51 27.62395 71.96154 36794 ft 571 kts 115°
2026-05-08 04:52 27.58704 72.04085 36799 ft 571 kts 115°
2026-05-08 04:52 27.55000 72.12027 36796 ft 571 kts 115°
2026-05-08 04:53 27.51321 72.19901 36796 ft 571 kts 115°
2026-05-08 04:53 27.47616 72.27814 36807 ft 571 kts 115°
2026-05-08 04:54 27.43907 72.35720 36796 ft 570 kts 116°
2026-05-08 04:54 27.40191 72.43629 36799 ft 570 kts 116°
2026-05-08 04:55 27.36501 72.51468 36799 ft 570 kts 116°
2026-05-08 04:55 27.32780 72.59359 36802 ft 570 kts 116°
2026-05-08 04:56 27.29058 72.67234 36801 ft 570 kts 116°
2026-05-08 04:56 27.25330 72.75110 36801 ft 570 kts 116°
2026-05-08 04:57 27.21622 72.82928 36802 ft 570 kts 116°
2026-05-08 04:57 27.17881 72.90801 36802 ft 570 kts 116°
2026-05-08 04:58 27.14142 72.98658 36805 ft 570 kts 116°
2026-05-08 04:58 27.10418 73.06465 36802 ft 570 kts 116°
2026-05-08 04:59 27.06672 73.14307 36805 ft 570 kts 116°
2026-05-08 04:59 27.02919 73.22149 36800 ft 570 kts 116°
2026-05-08 05:00 26.99162 73.29983 36814 ft 569 kts 116°
2026-05-08 05:00 26.95409 73.37796 36815 ft 570 kts 116°
2026-05-08 05:01 26.91613 73.45599 36812 ft 570 kts 117°
2026-05-08 05:01 26.87784 73.53393 36818 ft 570 kts 117°
2026-05-08 05:02 26.83984 73.61124 36820 ft 570 kts 117°
2026-05-08 05:02 26.80162 73.68902 36813 ft 569 kts 117°
2026-05-08 05:03 26.76342 73.76670 36824 ft 569 kts 117°
2026-05-08 05:03 26.72522 73.84421 36829 ft 568 kts 117°
2026-05-08 05:04 26.68723 73.92115 36829 ft 568 kts 117°
2026-05-08 05:04 26.64893 73.99859 36834 ft 568 kts 117°
2026-05-08 05:05 26.61055 74.07603 36845 ft 568 kts 117°
2026-05-08 05:05 26.57221 74.15329 36819 ft 568 kts 117°
2026-05-08 05:06 26.53419 74.23002 36856 ft 567 kts 117°
2026-05-08 05:06 26.49639 74.30738 36857 ft 567 kts 117°
2026-05-08 05:07 26.45866 74.38471 36870 ft 567 kts 117°
2026-05-08 05:07 26.42094 74.46168 36858 ft 567 kts 117°
2026-05-08 05:08 26.38296 74.53895 36864 ft 567 kts 117°
2026-05-08 05:08 26.34495 74.61614 36866 ft 567 kts 117°
2026-05-08 05:09 26.31330 74.68029 36861 ft 567 kts 117°
2026-05-08 05:09 26.26912 74.76971 36867 ft 566 kts 117°
2026-05-08 05:10 26.21818 74.87256 36871 ft 566 kts 117°
2026-05-08 05:11 26.18020 74.94872 36858 ft 566 kts 119°
2026-05-08 05:11 26.13729 75.02238 36874 ft 566 kts 123°
2026-05-08 05:12 26.09320 75.09512 36875 ft 566 kts 123°
2026-05-08 05:12 26.04893 75.16756 36872 ft 565 kts 123°
2026-05-08 05:13 26.00504 75.23944 36870 ft 564 kts 123°
2026-05-08 05:13 25.96097 75.31163 36870 ft 564 kts 123°
2026-05-08 05:14 25.91679 75.38394 36873 ft 564 kts 123°
2026-05-08 05:14 25.87263 75.45603 36871 ft 564 kts 124°
2026-05-08 05:15 25.82598 75.52615 36869 ft 564 kts 127°
2026-05-08 05:15 25.77836 75.59454 36879 ft 563 kts 127°
2026-05-08 05:16 25.73074 75.66348 36875 ft 562 kts 127°
2026-05-08 05:16 25.68343 75.73268 36876 ft 563 kts 127°
2026-05-08 05:17 25.63615 75.80199 36882 ft 563 kts 127°
2026-05-08 05:17 25.58919 75.87075 36877 ft 562 kts 127°
2026-05-08 05:18 25.54193 75.93981 36869 ft 562 kts 127°
2026-05-08 05:18 25.49471 76.00867 36879 ft 561 kts 127°
2026-05-08 05:19 25.44750 76.07741 36883 ft 561 kts 127°
2026-05-08 05:19 25.40016 76.14626 36891 ft 561 kts 127°
2026-05-08 05:20 25.35319 76.21446 36882 ft 561 kts 127°
2026-05-08 05:20 25.30585 76.28310 36887 ft 561 kts 127°
2026-05-08 05:21 25.25847 76.35170 36884 ft 560 kts 127°
2026-05-08 05:21 25.21123 76.42000 36885 ft 559 kts 127°
2026-05-08 05:22 25.16428 76.48779 36892 ft 559 kts 127°
2026-05-08 05:22 25.11700 76.55594 36895 ft 559 kts 128°
2026-05-08 05:23 25.06969 76.62403 36895 ft 559 kts 128°
2026-05-08 05:23 25.02239 76.69205 36886 ft 558 kts 128°
2026-05-08 05:24 24.97160 76.75639 36898 ft 556 kts 134°
2026-05-08 05:24 24.91841 76.81843 36897 ft 555 kts 135°
2026-05-08 05:25 24.86540 76.87940 36904 ft 555 kts 135°
2026-05-08 05:25 24.81207 76.94072 36903 ft 554 kts 135°
2026-05-08 05:26 24.75876 77.00209 36906 ft 554 kts 135°
2026-05-08 05:26 24.70547 77.06342 36906 ft 554 kts 135°
2026-05-08 05:27 24.65212 77.12475 36905 ft 554 kts 135°
2026-05-08 05:27 24.59917 77.18554 36906 ft 554 kts 135°
2026-05-08 05:28 24.54583 77.24668 36910 ft 554 kts 135°
2026-05-08 05:28 24.49239 77.30785 36912 ft 553 kts 135°
2026-05-08 05:29 24.43903 77.36886 36913 ft 552 kts 136°
2026-05-08 05:29 24.38621 77.42916 36919 ft 551 kts 136°
2026-05-08 05:30 24.33302 77.48982 36923 ft 551 kts 136°
2026-05-08 05:30 24.27980 77.55044 36924 ft 551 kts 136°
2026-05-08 05:31 24.22659 77.61095 36934 ft 551 kts 136°
2026-05-08 05:31 24.17328 77.67151 36915 ft 550 kts 136°
2026-05-08 05:32 24.12055 77.73133 36930 ft 548 kts 136°
2026-05-08 05:32 24.06746 77.79149 36926 ft 548 kts 136°
2026-05-08 05:33 24.01477 77.85111 36928 ft 548 kts 136°
2026-05-08 05:33 23.96176 77.91101 36927 ft 548 kts 136°
2026-05-08 05:34 23.90864 77.97097 36901 ft 548 kts 136°
2026-05-08 05:34 23.85551 78.03087 36922 ft 547 kts 137°
2026-05-08 05:35 23.80281 78.09020 36922 ft 546 kts 137°
2026-05-08 05:35 23.74986 78.14975 36922 ft 546 kts 137°
2026-05-08 05:36 23.69694 78.20918 36923 ft 546 kts 137°
2026-05-08 05:36 23.64387 78.26870 36925 ft 546 kts 137°
2026-05-08 05:37 23.59093 78.32802 36927 ft 545 kts 137°
2026-05-08 05:37 23.53811 78.38714 36929 ft 544 kts 137°
2026-05-08 05:38 23.48562 78.44579 36930 ft 544 kts 137°
2026-05-08 05:38 23.43281 78.50473 36930 ft 544 kts 137°
2026-05-08 05:39 23.37996 78.56366 36930 ft 543 kts 137°
2026-05-08 05:39 23.32705 78.62257 36899 ft 543 kts 137°
2026-05-08 05:40 23.27424 78.68132 36937 ft 541 kts 137°
2026-05-08 05:40 23.22165 78.73975 36934 ft 539 kts 137°
2026-05-08 05:41 23.16886 78.79707 36929 ft 539 kts 139°
2026-05-08 05:41 23.11503 78.85394 36935 ft 539 kts 139°
2026-05-08 05:42 23.06120 78.91086 36929 ft 539 kts 139°
2026-05-08 05:42 23.00793 78.96740 36918 ft 538 kts 139°
2026-05-08 05:43 22.95458 79.02411 36928 ft 536 kts 139°
2026-05-08 05:43 22.90122 79.08075 36930 ft 536 kts 139°
2026-05-08 05:44 22.84781 79.13736 36917 ft 536 kts 139°
2026-05-08 05:44 22.79440 79.19390 36924 ft 536 kts 139°
2026-05-08 05:45 22.74125 79.25009 36921 ft 536 kts 139°
2026-05-08 05:45 22.68776 79.30660 36933 ft 535 kts 139°
2026-05-08 05:46 22.63474 79.36254 36931 ft 535 kts 139°
2026-05-08 05:46 22.58137 79.41878 36939 ft 535 kts 139°
2026-05-08 05:47 22.52844 79.47543 36945 ft 535 kts 137°
2026-05-08 05:47 22.47639 79.53318 36945 ft 536 kts 137°
2026-05-08 05:48 22.42471 79.59057 36936 ft 535 kts 137°
2026-05-08 05:48 22.37269 79.64797 36951 ft 533 kts 137°
2026-05-08 05:49 22.32065 79.70514 36948 ft 533 kts 137°
2026-05-08 05:49 22.26855 79.76227 36947 ft 533 kts 137°
2026-05-08 05:50 22.21684 79.81892 36953 ft 533 kts 137°
2026-05-08 05:50 22.16472 79.87596 36946 ft 532 kts 137°
2026-05-08 05:51 22.11268 79.93286 36946 ft 532 kts 137°
2026-05-08 05:51 22.06075 79.98957 36948 ft 530 kts 137°
2026-05-08 05:52 22.00921 80.04580 36948 ft 530 kts 137°
2026-05-08 05:52 21.95732 80.10235 36946 ft 530 kts 137°
2026-05-08 05:53 21.90535 80.15892 36946 ft 530 kts 137°
2026-05-08 05:53 21.85342 80.21538 36948 ft 531 kts 137°
2026-05-08 05:54 21.80140 80.27188 36946 ft 531 kts 137°
2026-05-08 05:54 21.74963 80.32805 36942 ft 531 kts 137°
2026-05-08 05:55 21.69759 80.38446 36945 ft 531 kts 137°
2026-05-08 05:55 21.64545 80.44090 36947 ft 531 kts 137°
2026-05-08 05:56 21.59333 80.49725 36943 ft 531 kts 137°
2026-05-08 05:56 21.54123 80.55354 36945 ft 531 kts 138°
2026-05-08 05:57 21.48956 80.60937 36946 ft 529 kts 137°
2026-05-08 05:57 21.43809 80.66602 36946 ft 528 kts 137°
2026-05-08 05:58 21.38727 80.72235 36933 ft 528 kts 137°
2026-05-08 05:58 21.34435 80.76978 36929 ft 528 kts 137°
2026-05-08 05:59 21.29347 80.82591 36943 ft 528 kts 137°
2026-05-08 05:59 21.24212 80.88230 36926 ft 528 kts 137°
2026-05-08 06:00 21.19081 80.93858 36932 ft 526 kts 137°
2026-05-08 06:00 21.13974 80.99458 36929 ft 525 kts 137°
2026-05-08 06:01 21.08862 81.05057 36929 ft 525 kts 137°
2026-05-08 06:01 21.03790 81.10608 36927 ft 525 kts 137°
2026-05-08 06:02 20.98683 81.16190 36926 ft 525 kts 137°
2026-05-08 06:02 20.93574 81.21770 36926 ft 525 kts 137°
2026-05-08 06:03 20.88462 81.27347 36923 ft 524 kts 137°
2026-05-08 06:03 20.83358 81.32911 36927 ft 522 kts 137°
2026-05-08 06:04 20.78295 81.38429 36926 ft 522 kts 137°
2026-05-08 06:04 20.73244 81.44023 36927 ft 523 kts 137°
2026-05-08 06:05 20.68234 81.49604 36927 ft 523 kts 137°
2026-05-08 06:05 20.63186 81.55211 36925 ft 523 kts 137°
2026-05-08 06:06 20.58132 81.60809 36916 ft 523 kts 137°
2026-05-08 06:06 20.53118 81.66354 36931 ft 522 kts 137°
2026-05-08 06:07 20.48065 81.71938 36927 ft 522 kts 137°
2026-05-08 06:07 20.43016 81.77511 36927 ft 522 kts 137°
2026-05-08 06:08 20.37957 81.83089 36933 ft 522 kts 137°
2026-05-08 06:08 20.32902 81.88659 36933 ft 523 kts 137°
2026-05-08 06:09 20.27846 81.94222 36926 ft 522 kts 137°
2026-05-08 06:09 20.22792 81.99780 36938 ft 522 kts 137°
2026-05-08 06:10 20.17759 82.05350 36937 ft 522 kts 136°
2026-05-08 06:10 20.12776 82.10899 36939 ft 522 kts 136°
2026-05-08 06:11 20.07756 82.16482 36938 ft 521 kts 136°
2026-05-08 06:11 20.02731 82.22058 36940 ft 521 kts 136°
2026-05-08 06:12 19.97710 82.27620 36947 ft 522 kts 136°
2026-05-08 06:12 19.92677 82.33191 36945 ft 521 kts 136°
2026-05-08 06:13 19.87684 82.38713 36947 ft 520 kts 136°
2026-05-08 06:13 19.82673 82.44248 36939 ft 520 kts 136°
2026-05-08 06:14 19.77657 82.49784 36945 ft 519 kts 136°
2026-05-08 06:14 19.72641 82.55313 36944 ft 519 kts 136°
2026-05-08 06:15 19.67657 82.60803 36929 ft 519 kts 136°
2026-05-08 06:15 19.62636 82.66329 36942 ft 519 kts 136°
2026-05-08 06:16 19.57630 82.71832 36942 ft 517 kts 136°
2026-05-08 06:16 19.52627 82.77327 36941 ft 517 kts 136°
2026-05-08 06:17 19.45131 82.85549 36950 ft 515 kts 137°
2026-05-08 06:17 19.40166 82.90989 36955 ft 515 kts 137°
2026-05-08 06:18 19.35179 82.96449 36964 ft 515 kts 137°
2026-05-08 06:18 19.30191 83.01904 36967 ft 515 kts 137°
2026-05-08 06:19 19.25216 83.07340 36975 ft 513 kts 137°
2026-05-08 06:19 19.20281 83.12726 36975 ft 513 kts 137°
2026-05-08 06:20 19.15301 83.18157 36969 ft 513 kts 137°
2026-05-08 06:20 19.10356 83.23546 36974 ft 512 kts 137°
2026-05-08 06:21 19.05393 83.28949 36971 ft 512 kts 137°
2026-05-08 06:21 19.00426 83.34351 36963 ft 512 kts 137°
2026-05-08 06:22 18.95465 83.39749 36953 ft 511 kts 137°
2026-05-08 06:22 18.90507 83.45126 36959 ft 510 kts 137°
2026-05-08 06:23 18.85583 83.50459 36931 ft 510 kts 137°
2026-05-08 06:23 18.80627 83.55828 36930 ft 509 kts 137°
2026-05-08 06:24 18.75680 83.61182 36925 ft 509 kts 137°
2026-05-08 06:24 18.70735 83.66529 36918 ft 509 kts 137°
2026-05-08 06:25 18.65795 83.71866 36916 ft 509 kts 137°
2026-05-08 06:25 18.60875 83.77177 36914 ft 509 kts 137°
2026-05-08 06:26 18.55921 83.82520 36908 ft 509 kts 137°
2026-05-08 06:26 18.50970 83.87854 36907 ft 508 kts 137°
2026-05-08 06:27 18.46019 83.93184 36907 ft 508 kts 137°
2026-05-08 06:27 18.41098 83.98478 36908 ft 508 kts 137°
2026-05-08 06:28 18.36146 84.03800 36906 ft 508 kts 137°
2026-05-08 06:28 18.31195 84.09117 36897 ft 507 kts 137°
2026-05-08 06:29 18.26294 84.14372 36900 ft 506 kts 137°
2026-05-08 06:29 18.21323 84.19638 36900 ft 506 kts 137°
2026-05-08 06:30 18.16356 84.24883 36901 ft 506 kts 137°
2026-05-08 06:30 18.11423 84.30097 36903 ft 506 kts 137°
2026-05-08 06:31 18.06494 84.35311 36898 ft 505 kts 137°
2026-05-08 06:31 18.01533 84.40554 36898 ft 504 kts 137°
2026-05-08 06:32 17.96582 84.45782 36902 ft 503 kts 137°
2026-05-08 06:32 17.91649 84.50987 36898 ft 502 kts 137°
2026-05-08 06:33 17.86753 84.56147 36898 ft 502 kts 137°
2026-05-08 06:33 17.81820 84.61342 36899 ft 502 kts 137°
2026-05-08 06:34 17.76888 84.66532 36890 ft 502 kts 137°
2026-05-08 06:34 17.71953 84.71722 36890 ft 501 kts 137°
2026-05-08 06:35 17.67063 84.76860 36884 ft 500 kts 137°
2026-05-08 06:35 17.62179 84.82072 36895 ft 499 kts 137°
2026-05-08 06:36 17.57340 84.87300 36890 ft 499 kts 137°
2026-05-08 06:36 17.52520 84.92498 36890 ft 499 kts 137°
2026-05-08 06:37 17.47675 84.97705 36890 ft 499 kts 137°
2026-05-08 06:37 17.42822 85.02911 36888 ft 499 kts 137°
2026-05-08 06:38 17.37959 85.08124 36889 ft 499 kts 137°
2026-05-08 06:38 17.33106 85.13322 36879 ft 498 kts 137°
2026-05-08 06:39 17.28301 85.18466 36887 ft 496 kts 137°
2026-05-08 06:39 17.23475 85.23627 36881 ft 495 kts 137°
2026-05-08 06:40 17.18653 85.28779 36884 ft 495 kts 137°
2026-05-08 06:40 17.13859 85.33981 36881 ft 496 kts 135°
2026-05-08 06:41 17.09206 85.39317 36881 ft 497 kts 135°
2026-05-08 06:41 17.04596 85.44638 36888 ft 497 kts 135°
2026-05-08 06:42 16.99930 85.49975 36868 ft 497 kts 135°
2026-05-08 06:42 16.95242 85.55306 36888 ft 497 kts 135°
2026-05-08 06:43 16.90573 85.60606 36888 ft 497 kts 135°
2026-05-08 06:43 16.85878 85.65933 36871 ft 497 kts 135°
2026-05-08 06:44 16.81185 85.71255 36867 ft 497 kts 135°
2026-05-08 06:44 16.76520 85.76541 36885 ft 497 kts 135°
2026-05-08 06:45 16.71823 85.81859 36887 ft 497 kts 135°
2026-05-08 06:45 16.67121 85.87179 36884 ft 497 kts 135°
2026-05-08 06:46 16.62456 85.92452 36885 ft 497 kts 135°
2026-05-08 06:46 16.57752 85.97766 36877 ft 497 kts 135°
2026-05-08 06:47 16.53055 86.03067 36861 ft 497 kts 135°
2026-05-08 06:47 16.49155 86.07466 36862 ft 497 kts 135°
2026-05-08 06:48 16.43694 86.13622 36861 ft 497 kts 135°
2026-05-08 06:48 16.39766 86.18045 36865 ft 497 kts 135°
2026-05-08 06:49 16.35098 86.23298 36873 ft 497 kts 135°
2026-05-08 06:49 16.30386 86.28597 36870 ft 498 kts 135°
2026-05-08 06:50 16.25680 86.33885 36874 ft 496 kts 135°
2026-05-08 06:50 16.21016 86.39122 36873 ft 496 kts 135°
2026-05-08 06:51 16.16322 86.44389 36871 ft 496 kts 135°
2026-05-08 06:51 16.11623 86.49657 36870 ft 496 kts 135°
2026-05-08 06:52 16.06924 86.54922 36870 ft 496 kts 135°
2026-05-08 06:52 16.02225 86.60182 36870 ft 497 kts 134°
2026-05-08 06:53 15.97534 86.65429 36868 ft 498 kts 135°
2026-05-08 06:53 15.92807 86.70714 36870 ft 498 kts 134°
2026-05-08 06:54 15.88089 86.75984 36867 ft 498 kts 134°
2026-05-08 06:54 15.83363 86.81259 36868 ft 498 kts 134°
2026-05-08 06:55 15.78660 86.86504 36868 ft 498 kts 134°
2026-05-08 06:55 15.73930 86.91775 36867 ft 498 kts 134°
2026-05-08 06:56 15.69192 86.97052 36867 ft 498 kts 134°
2026-05-08 06:56 15.64499 87.02276 36868 ft 497 kts 134°
2026-05-08 06:57 15.59783 87.07520 36864 ft 497 kts 134°
2026-05-08 06:57 15.55066 87.12763 36864 ft 496 kts 134°
2026-05-08 06:58 15.50351 87.17999 36863 ft 496 kts 134°
2026-05-08 06:58 15.45640 87.23226 36864 ft 496 kts 134°
2026-05-08 06:59 15.40954 87.28422 36865 ft 496 kts 134°
2026-05-08 06:59 15.36239 87.33647 36863 ft 496 kts 134°
2026-05-08 07:00 15.31527 87.38865 36864 ft 495 kts 134°
2026-05-08 07:00 15.26806 87.44089 36865 ft 495 kts 134°
2026-05-08 07:01 15.22170 87.49366 36858 ft 495 kts 133°
2026-05-08 07:01 15.17630 87.54678 36858 ft 496 kts 133°